Regional Weather Roundup
Issued by NWS

Home | Current Version | Previous Version | Text Only | Print | Product List | Glossary On
Versions: 1 2 3 4 5 6 7 8 9 10 11 12 13 14 15 16 17 18 19 20 21 22 23 24 25 26 27 28 29 30 31 32 33 34 35 36 37 38 39 40 41 42 43 44 45 46 47 48 49 50
000
ASUS43 KTOP 201259
RWRKS

WEATHER ROUNDUP FOR KANSAS
NATIONAL WEATHER SERVICE GOODLAND KS
800 AM CDT SUN APR 20 2014

NOTE:  "FAIR" INDICATES FEW OR NO CLOUDS BELOW 12,000 FEET WITH NO
SIGNIFICANT WEATHER AND/OR OBSTRUCTIONS TO VISIBILITY.

KSZ001>006-013>018-027>032-041>047-201400-
NORTHWEST KANSAS

CITY           SKY/WX    TMP DP  RH WIND       PRES   REMARKS
GOODLAND       FOG       44  44 100 CALM      30.00R VSB 1/2
HAYS           CLOUDY    61  50  67 S8        30.01R
HILL CITY      PTSUNNY   55  48  77 S7        30.00R
RUSSELL        CLOUDY    61  50  67 S14       30.00R
$$

KSZ061>065-074>080-084>089-201400-
SOUTHWEST KANSAS

CITY           SKY/WX    TMP DP  RH WIND       PRES   REMARKS
DODGE CITY     CLOUDY    57  48  72 S16       30.02R
ELKHART          N/A     51  42  71 SW9         N/A
GARDEN CITY    PTSUNNY   55  50  83 S8        30.00R
GREAT BEND     PTSUNNY   57  48  72 S10       30.02R
LIBERAL        MOSUNNY   52  46  82 S10       30.03R
$$

KSZ066>073-081>083-090>101-201400-
SOUTHEAST KANSAS

CITY           SKY/WX    TMP DP  RH WIND       PRES   REMARKS
CHANUTE        PTSUNNY   57  51  80 S7        30.12S
COFFEYVILLE    CLOUDY    59  51  75 S7        30.13R
HUTCHINSON     MOSUNNY   60  50  69 S9        30.05S
NEWTON         MOSUNNY   59  46  63 S12       30.10R
PARSONS        CLOUDY    61  50  67 S5        30.14R
WICHITA INTL   PTSUNNY   61  51  70 S14       30.07R
WICHITA JABRA  PTSUNNY   62  51  67 S14       30.07R
WINFIELD       CLOUDY    62  52  69 S10       30.10R
$$

KSZ007>012-019>026-033>040-048>060-102>105-201400-
NORTHEAST KANSAS

CITY           SKY/WX    TMP DP  RH WIND       PRES   REMARKS
CONCORDIA      CLOUDY    61  50  67 S21       30.00R
EMPORIA        CLOUDY    59  49  69 S12       30.08R
LAWRENCE       MOSUNNY   60  50  69 SE6       30.09S
MANHATTAN      PTSUNNY   64  50  60 SW10      30.04R
OLATHE IND     SUNNY     58  47  66 S9        30.11S
OLATHE EXE     SUNNY     59  47  64 S9        30.10S
SALINA         MOSUNNY   61  50  67 S8        30.03S
TOPEKA BILLARD MOSUNNY   62  49  62 S8        30.07S
TOPEKA FORBES  MOSUNNY   60  48  64 S10       30.07S
$$



USA.gov is the U.S. government's official web portal to all federal, state and local government web resources and services.